Location: Moscow
(38.8570°N, 84.2291°W)
Time: 16:40:10
(UTC+00:00)

CZ-4 R/B - Pass Details

Date: 15 November 2025
Orbit: 547 x 556 km, 97.6° (Epoch: 06 December)

Event Time Altitude Azimuth Distance (km) Brightness Sun altitude
Rises 23:30:26 0° 156° (SSE) 2,723 7.8 -13.3°
Reaches altitude 10° 23:32:35 10° 152° (SSE) 1,832 6.8 -13.7°
Maximum altitude 23:36:27 54° 74° (ENE) 679 4.4 -14.4°
Drops below altitude 10° 23:40:20 10° 358° (N) 1,839 6.9 -15.2°
Sets 23:42:30 0° 353° (N) 2,736 7.8 -15.6°
